This is the latest recevied weather packets stored in our database for station/object EA3BNF-1. If no packets are shown the sender has not sent any weather packets the latest 1 day(s).
| Time | Temp. | Humidity | Pressure | Rain* | Wind** | Luminosity | Snow |
|---|---|---|---|---|---|---|---|
| 1778055150 | 17.22° C | 54% | 1012.5 hPa | - | - | - | - |
| 1778053839 | 16.67° C | 56% | 1012.4 hPa | - | - | - | - |
| 1778052528 | 16.11° C | 58% | 1012.4 hPa | - | - | - | - |
| 1778051872 | 15.56° C | 57% | 1012.3 hPa | - | - | - | - |
| 1778051216 | 15.56° C | 58% | 1012.3 hPa | - | - | - | - |
| 1778050561 | 15° C | 58% | 1012.3 hPa | - | - | - | - |
| 1778048594 | 14.44° C | 59% | 1012.2 hPa | - | - | - | - |
| 1778047938 | 14.44° C | 59% | 1012.1 hPa | - | - | - | - |
| 1778046627 | 13.89° C | 61% | 1012 hPa | - | - | - | - |
| 1778045315 | 13.89° C | 61% | 1011.9 hPa | - | - | - | - |
| 1778044660 | 13.89° C | 61% | 1011.9 hPa | - | - | - | - |
| 1778042693 | 14.44° C | 61% | 1011.7 hPa | - | - | - | - |
| 1778040726 | 14.44° C | 59% | 1011.7 hPa | - | - | - | - |
| 1778039409 | 14.44° C | 60% | 1011.6 hPa | - | - | - | - |
| 1778038753 | 14.44° C | 60% | 1011.5 hPa | - | - | - | - |
| 1778038097 | 14.44° C | 60% | 1011.7 hPa | - | - | - | - |
| 1778037442 | 14.44° C | 60% | 1011.6 hPa | - | - | - | - |
| 1778036786 | 14.44° C | 60% | 1011.4 hPa | - | - | - | - |
| 1778036130 | 14.44° C | 61% | 1011.3 hPa | - | - | - | - |
| 1778035475 | 14.44° C | 61% | 1011.3 hPa | - | - | - | - |
| 1778034819 | 14.44° C | 61% | 1011.2 hPa | - | - | - | - |
| 1778034164 | 14.44° C | 61% | 1011.2 hPa | - | - | - | - |
| 1778033508 | 15° C | 62% | 1011.1 hPa | - | - | - | - |
| 1778032197 | 15° C | 61% | 1011 hPa | - | - | - | - |
| 1778031541 | 15° C | 61% | 1011 hPa | - | - | - | - |
* Rain since midnight (hover to see other rain measurements)
** Current wind speed in m/s (hover to see current wind gust speed)